Hourly Data Report for July 02, 2021

TORONTO CITY CENTRE
ONTARIO
Current Station Operator: NAVCAN

43°37'39.000" N
79°23'46.000" W
76.80 m
6158359
71265
YTZ

Download Data

Hourly Data (July 2021)
Hourly Data Report for July 2, 2021
TIME
LST
Temp Definition
°C
Dew Point Definition
°C
Rel Hum Definition
%
Precip. Amount Definition
mm

Wind Dir Definition
10's deg

Wind Spd Definition
km/h
Visibility Definition
km
Stn Press Definition
kPa
Hmdx Definition


Wind Chill Definition


Weather Definition


00:00 18.7 12.3 66 0.0 35 21 16.1 100.19     LegendNANA
01:00 18.2 12.8 71 0.0 35 13 16.1 100.19     LegendNANA
02:00 18.0 13.6 75 0.0 35 15 16.1 100.14     LegendNANA
03:00 17.9 14.2 79 0.0 34 11 16.1 100.13     LegendNANA
04:00 17.4 14.5 83 0.0 34 21 16.1 100.14     LegendNANA
05:00 17.4 14.7 84 0.0 35 15 16.1 100.19     LegendNANA
06:00 18.1 14.6 80 0.0 34 13 16.1 100.20     LegendNANA
07:00 19.3 14.5 73 0.0 1 26 16.1 100.21     LegendNANA
08:00 19.3 14.2 72 0.0 1 21 16.1 100.27     LegendNANA
09:00 21.1 14.5 66 0.0 36 17 16.1 100.24 25   LegendNANA
10:00 20.5 14.3 67 0.0 1 13 16.1 100.24     LegendNANA
11:00 21.9 14.5 62 0.0 1 18 16.1 100.22 26   LegendNANA
12:00 22.3 13.7 58 0.0 5 26 16.1 100.20 25   LegendNANA
13:00 22.9 14.5 59 0.0 32 21 16.1 100.13 27   LegendNANA
14:00 24.2 14.0 53 0.0 6 17 16.1 100.11 28   LegendNANA
15:00 19.3 13.3 68 0.0 11 18 16.1 100.13     Thunderstorms, Rain
16:00 16.8 15.5 92 15.4 7 15 8.1 100.23     Thunderstorms, Rain, Fog
17:00 18.5 16.6 89 0.0 25 9 16.1 100.28     LegendNANA
18:00 17.3 16.2 93 0.0 23 8 16.1 100.23     LegendNANA
19:00 17.1 15.9 93 0.2 17 9 16.1 100.27     Rain
20:00 16.6 15.5 93 0.0 27 8 16.1 100.28     LegendNANA
21:00 19.4 14.7 74 0.0 32 5 16.1 100.29     LegendNANA
22:00 19.0 14.3 74 0.0 34 13 16.1 100.26     LegendNANA
23:00 18.6 14.3 76 0.0 34 11 16.1 100.22     LegendNANA

Notes on Data Quality.

Legend

  • E = Estimated
  • M = Missing
  • NA = Not Available*
  • [empty] = Indicates an unobserved value
Date modified: